STARLINK-35021, 65282

Orbit data source: Space-Track

STARLINK-35021, 65282 is a payload satellite owned by SpaceX/Seattle (US) in SSO that was launched on Fri, 22 Aug 2025 UTC via an FALCON 9 launch vehicle from the Air Force Western Test Range (AFWTR). Payload-class satellites include a variety of spacecraft equipped with specific instruments for various scientific and technological missions. These include communications satellites like Starlink; space stations such as the ISS; scientific satellites like the Hubble; Earth observation satellites from companies like Planet Labs, Umbra, and HawkEye 360; GPS; miniature CubeSats for education and research; and military/defense satellites.

Loading next visibility...
Identifier
65282, 2025-184K
Orbit
SSO
Country
Flag of USUS
Related business
Manufacturer
SpaceX/Seattle
Mission
Operational Commercial Communications
Bus & Motor
STARLINK V2MO, Unknown motor
Mass
575 kg wet, ~530 kg dry
Launch date (UTC)
2025-08-22 (10 months ago)
Launch vehicle
FALCON 9
Launch site
Air Force Western Test Range (AFWTR)
Object type
Payload
Rocket body
Debris
Shape & HBR
Box + 2 Pan, 17.7 m
Radar Cross Section
36.964 m², Large (>1 m²)

Expand to show TLE details & history
Last TLE update: 10 hours ago

TLE from 10 hours ago
0 STARLINK-35021
1 65282U 25184K   26171.42593822  .00004797  00000-0  33610-3 0  9998
2 65282  97.3380 222.8986 0002144 104.4913 255.6553 15.05659634 46718
Epoch: 2026-06-20T10:13Z
TLE epoch observation values (Epoch: 2026-06-20T10:13:21.062Z)
Latitude
0.00004°
Longitude
160.9201°
Altitude
552.923 km
Speed
7.585 km/s
True Right ascension
14h 51m 35s
True Declination
0° 00' 00"
Sunlit
Object was in full shadow at epoch
Visualization orbit readout
Latitude
Unknown
Longitude
Unknown
Altitude
Unknown
Speed
Unknown
Apparent Right ascension
Unknown
Apparent Declination
Unknown
Sunlit
N/A
Visualization observer readout
Local Sidereal Time
07:19:38
Azimuth
Unknown
Elevation
Unknown
Doppler factor
Unknown
Orbital elements
Apogee altitude
547.948 km
Perigee altitude
544.979 km
Semi-major axis
6,924.601 km
Eccentricity
0.00021
Inclination
97.338°
RAAN
222.8986°
Arg. of periapsis
104.4913°
True anomaly
255.6315°
Mean anomaly
255.6553°
Eccentric anomaly
255.6434°
Mean motion
3.76661 °/min
Orbital period
95.58 mins
BSTAR
0.0003361
Loading maneuver chart data...
Computing Atmospheric mass density...
Loading historical data...
Loading historical data...
Loading historical data...
Loading historical data...
Loading historical data...
Loading historical data...
Loading historical data...

Documentation

Showing up to 5 results
|